Home   Weather   Market Harborough   Past weeks

Flag for United Kingdom Past Weather in Market Harborough, England, United Kingdom — Yesterday and Last 2 Weeks

Now
44 °F

Quite cool.


Feels Like: 38 °F
Forecast: 35 / 48 °F
Wind: 10 mph from North

Location: Church Lawford

Current Time: Apr 25, 2017 at 12:06:35 pm

Latest Report: Apr 25, 2017 at 10:00 am


Visibility: 25 mi

Pressure: 29.96 "Hg

Humidity: 57%

Dew Point: 29 °F

Location of Market HarboroughLocation

Past Weather in Market Harborough — Graph

°F

Market Harborough Temperature Yesterday

Maximum temperature yesterday: 54 °F (at 12:00 pm)
Minimum temperature yesterday: 38 °F (at 11:00 pm)
Average temperature yesterday: 46 °F

High & Low Weather Summary for the Past Weeks

 TemperatureHumidityPressure
High59 °F (Apr 23, 6:00 pm)97% (Apr 14, 11:00 pm)30.64 "Hg (Apr 14, 11:00 pm)
Low33 °F (Apr 25, 4:00 am)29% (Apr 19, 4:00 pm)29.91 "Hg (Apr 24, 5:00 pm)
Average48 °F73%30.25 "Hg
* Reported Apr 10 10:00 am — Apr 25 10:00 am, Market Harborough, Weather by CustomWeather, © 2017

Note: Actual official high and low records may vary slightly from our data, if they occured in-between our weather recording intervals... More about our weather records

Advertising

Market Harborough Weather History for the Previous 24 Hours

Scroll right to see more
 ConditionsComfort  
Time TempWeatherWind HumidityBarometerVisibility
10:00 am
Tue, Apr 25
44 °FQuite cool.10 mph57%29.96 "Hg25 mi
9:00 am41 °FQuite cool.9 mph66%29.97 "Hg22 mi
8:00 am37 °FChilly.7 mph85%29.96 "Hg16 mi
7:00 am34 °FChilly.5 mph93%29.94 "Hg12 mi
6:00 am34 °FChilly.10 mph91%29.93 "Hg18 mi
5:00 am35 °FChilly.7 mph91%29.91 "Hg16 mi
4:00 am33 °FSnow flurries. Overcast.6 mph80%29.92 "Hg9 mi
3:00 am34 °FChilly.7 mph76%29.92 "Hg14 mi
2:00 am34 °FChilly.7 mph76%29.93 "Hg16 mi
1:00 am36 °FChilly.9 mph70%29.94 "Hg22 mi
12:00 am37 °FChilly.13 mph69%29.94 "Hg18 mi
11:00 pm
Mon, Apr 24
38 °FChilly.16 mph64%29.95 "Hg22 mi
10:00 pm40 °FChilly.12 mph55%29.94 "Hg22 mi
9:00 pm42 °FQuite cool.17 mph45%29.94 "Hg28 mi
8:00 pm44 °FQuite cool.12 mph55%29.93 "Hg28 mi
7:00 pm47 °FCool.16 mph52%29.92 "Hg31 mi
6:00 pm49 °FCool.18 mph60%29.92 "Hg28 mi
5:00 pm50 °FCool.16 mph67%29.91 "Hg28 mi
4:00 pm49 °FCool.12 mph80%29.92 "Hg25 mi
3:00 pm50 °FCool.9 mph86%29.93 "Hg25 mi
2:00 pm49 °FLight rain. Cloudy.7 mph90%29.95 "Hg7 mi
1:00 pm50 °FLots of rain. Cloudy.9 mph76%29.97 "Hg11 mi
12:00 pm54 °FCool.12 mph68%29.98 "Hg28 mi
Weather by CustomWeather, © 2017

See weather overviewHow to use our weather pages